AZTECHSAT-1 (45261 NORAD) Tracking and Keplerian Element Data

This shows tracking and keplerian element data for the satellite.

Feedback or suggestion? Click here.




ElementValue
Catalog45261
NameAZTECHSAT-1
Epoch Orbit3846
Epoch Day297.86522362
Epoch Year2020
RAAN66.8308
Inclination51.6408
Eccentricity0.0007231
Argument of Perigee115.9599
Mean Anonmoly244.2138
Mean Motion15.54118505
Decay Rate0.00017912
L11 45261U 98067RE 20297.86522362 .00017912 00000-0 27709-3 0 9990
L22 45261 51.6408 66.8308 0007231 115.9599 244.2138 15.54118505 38467

Live tracking and technical data element details for AZTECHSAT-1 (NORAD 45261). AZTECHSAT-1 can be tracked NOW for your location showing map with azimuth and elevation plus other details from your city location.

Track the satellite on the map from your city or location and see movement details for azimuth, elevation, latitude, longitude, range, height, and movement on the map or in text.







IsCatalogInMostPopularTable: catalog: 45261, numindb: 64
Update: records affected: 1



GetName: 45261 AZTECHSAT-1

Hit Count: updated at: Sun, 25 Oct 2020 08:16:27 GMT